sat.trackr.live / text

‹ back to catalog

STARLINK-31167

NORAD 58744 · 2024-005S

PAYLOAD ACTIVE UNKNOWN

§ Identity

Operator
Country
US
Launch date
2024-01-07
Launch site
AFETR
Launch vehicle
Mass (kg)
RCS (m²)

Purposes: comms

External: N2YO · Heavens-Above · Gunter

§ Orbital elements

Epoch: 2026-09-20T09:51:40.615200Z

Period
94.27 min
Inclination
43.0054°
Eccentricity
0.0001112
Mean motion
15.27574234 rev/d
Perigee alt
482.3 km
Apogee alt
483.8 km
Semi-major
6,861.2 km
B*
-3.7464e-6
RAAN
54.6254°
Arg perigee
264.4741°
Mean anomaly
95.5984°
Rev number
15,198

§ Raw data

STARLINK-311671 58744U 24005S   26263.41088675 -.00000365  00000+0 -37464-5 0  99912 58744  43.0054  54.6254 0001112 264.4741  95.5984 15.27574234151989

JSON: /api/v1/satellites/58744 · /tle

For live sub-satellite position, see the globe view (requires WebGL).

§ Visibility from observer

Set your observer location to see the next 7 days of passes ≥ 10°. The values pass through the URL so the page stays shareable.

No JS? Fill the form by hand. The geolocation button needs JavaScript.